Tracking 29892 objects as of 21-Nov-2024
HD Live streaming from Space Station
objects crossing your sky now

O3B MPOWER F05

Track O3B MPOWER F05 now!
10-day predictions


NORAD ID: 58346
Int'l Code: 2023-175A
Perigee: 8,062.1 km
Apogee: 8,083.9 km
Inclination: 0.1 °
Period: 287.9 minutes
Semi major axis: 14444 km
RCS: Unknown
Launch date: November 12, 2023
Source: SOCIETE EUROPEENNE DES SATELLITES (SES)
Launch site: AIR FORCE EASTERN TEST RANGE (AFETR)
Your satellite tracking list
Your tracking list is empty




NASA's NSSDC Master Catalog

Two Line Element Set (TLE):
1 58346U 23175A   24325.62312616 -.00000026  00000-0  00000-0 0  9996
2 58346   0.0575  12.7475 0007538 228.4498 118.7302  5.00116831 20741
Source of the keplerian elements: AFSPC